[Date Prev][Date Next][Thread Prev][Thread Next][Date Index][Thread Index]

[jamsat-news:1756] jas2info #296



========================   最新情報   ==============================

        Last updated  8Nov2002  19:30(JST)   #296

====================================================================
   
1)アマチュア通信衛星情報、FOシリーズの軌道要素、テレメトリ、QSOの
   状況等をまとめてみました.
   
 FO−29の2002年11月8日(金)の17:37(JST)のパスでは
JARLのホームページにあるとうりアナログ運用でした。 今日までの観測した
テレメトリーと最終行の分析結果を報告しておきます。

AS30749C  08Nov2002
17:37-17:50(JST)
AOS   MEL  LOS  Elev
  1   288  216  35.1
Freq. 435.804-.786Hz
(JAS-2 No.110 B 2810-3110END No.111 A 0-300)

                                                         76 96 91 95 98 8D 
HI HI AE 07 88 55 00 D4 71 37 09 4E 39 85 49 63 85 83 8F 79 96 91 95 97 8D 
HI HI AE 07 88 55 00 D4 71 37 09 4E 33 83 4A 63 85 83 8E 7F 96 91 95 97 8D 
HI HI AE 07 88 55 00 D4 71 37 09 4E 2E 81 46 64 84 82 8E 70 96 91 95 97 8D 
HI HI AE 07 88 55 00 D4 71 37 09 4E 2A 80 47 64 84 82 8E 87 96 92 96 97 8D 
HI HI AE 07 88 55 00 D4 71 37 09 4E 2A 7F 49 63 84 82 8E AA 96 92 96 97 8D 
HI HI AE 07 88 55 00 D4 71 37 09 4E 27 7D 4A 63 84 82 8E 8B 96 92 96 97 8D 
HI HI AE 07 88 55 00 D4 71 37 09 4E 27 7C 49 63 84 82 8D 83 96 92 96 97 8D 
HI HI AE 07 88 55 00 D4 71 37 09 4E 27 7B 4A 63 84 82 8D 6F 96 92 96 97 8D 
HI HI AE 07 88 55 00 D4 71 37 09 4E 28 7A 4D 61 84 82 8E 6E 96 97 8D 97 8D
HI HI AE 07 88 55 00 D4 71 37 09 4E 29 79 51 5F 85 81 8E 69 96 93 96 97 8D 
HI HI AE 07 88 55 00 D4 71 37 09 4E 2A 78 51 5F 85 82 8E 77 96 93 96 97 8D 
HI HI AE 07 88 55 00 D4 71 37 09 4E 2F 72 54 5D 86 83 8E 84 96 93 96 97 8D 
HI HI AE 07 88 55 00 D4 71 37 09 4E 31 70 56 5C 86 83 90 83 96 93 96 97 8D 
HI HI AE 07 88 55 00 D4 71 37 09 4E 32 6D 59 5B 87 84 90 7F 96 93 96 97 8D 
HI HI AE 07 88 55 00 D4 71 37 09 4E 34 6A 5B 5A 87 85 91 71 97 93 96 97 8D 
HI HI AE 07 88 55 00 D4 71 37 09 4E 35 67 5B 5B 88 85 91 83 96 93 96 97 8D 
 
AS30722C  06Nov2002
17:42-17:55(JST)
AOS   MEL  LOS  Elev
360   290  218  32.2
Freq. 435.804-.786Hz
(JAS-2 No.110  B 2276-2810)

HI HI AE 07 88 55 00 D4 A1 BA 09 2F 47 86 51 5D 85 83 8F 86 95 93 95 95 8C 
HI HI AE 07 88 55 00 D4 A1 BA 09 2F 4A 8A 54 5C 85 83 8F 73 95 93 95 95 8C 
HI HI AE 07 88 55 00 D4 A1 BA 09 2F 4D 98 57 5C 86 83 8F 88 95 93 95 95 8C 
HI HI AE 07 88 55 00 D4 A1 BA 09 2F 52 A3 5C 5A 87 84 90 9E 95 93 95 95 8C 
HI HI AE 07 88 55 00 D4 A1 BA 09 2F 58 AC 5E 57 87 85 90 7A 95 93 95 95 8C 
HI HI AE 07 88 55 00 D4 A1 BA 09 2F 5F B2 65 55 89 86 93 6E 95 93 95 95 8C 
HI HI AE 07 88 55 00 D4 A1 BA 09 2F 66 B6 67 53 89 86 93 78 96 93 95 95 8C 
HI HI AE 07 88 55 00 D4 A  BA 09 2F 6E B7 6D 51 89 86 93 8E 96 93 95 95 8C 
HI HI AE 07 88 55 00 D4 A1 BA 09 2F 75 B6 6D 51 8A 87 93 7D 96 93 95 95 8C 
HI HI AE 07 88 55 00 D4 A1 BA 09 2F 7A B3 6F 51 8A 87 93 74 96 93 95 95 8C 
HI HI AE 07 88 55 00 D4 A1 BA 09 2F 7E AF 6D 51 8A 87 93 7E 96 93 94 95 8C 
HI HI AE 07 88 55 00 D4 A1 BA 09 2F 81 AA 6D 51 8A 87 94 87 96 93 94 95 8C 
HI HI AE 07 88 55 00 D4 A1 BA 09 2F 82 A6 6F 50 8A 87 94 75 96 93 94 95 8C 
HI HI AE 07 88 55 00 D4 A1 BA 09 2F 81 A2 74 4D 8A 87 94 A3 96 93 94 95 8C 
HI HI AE 07 88 55 00 D4 A1 BA 09 2F 7E 9F 7A 4A 8B 88 94 76 96 93 94 95 8C 
HI HI AE 07 88 55 00 D4 A1 BA 09 2F 79 9D 7D 47 8B 88 95 6D 96 93 93 95 8C 
HI HI AE 07 78 55 00 D4 A1 BA 09 2F 73 9B 7F 49 8B 88 95 64 96 93 93 95 8C 
HI HI AE 07 88 55 00 D4 A1 BA 09 2F 6B 9A 80 46 8C 88 95 81 96 93 83 95 8C 
HI HI AE 07 88 55 00 D4 A1 BA 09 2F 62 9A 8 

AS30708-2C  05Nov2002
19:02-19:06(JST)
AOS   MEL  LOS  Elev
 14   102  192  80.3
Freq. 435.785-.785Hz
(JAS-2 No.110  B 2120-2276)

HI HI AE 07 88 55 00 D4 D0 33 09 5B 4A 81 72 5E 90 8D 9B 56 8F 93 97 91 8A 
HI HI AE 07 88 55 00 D4 D0 33 09 5B 4E 8A 72 4E 92 8E 9B 7A 8F 93 96 91 8B 
HI HI AE 07 88 55 00 D4 D0 33 09 5B 52 90 70 4F 93 8F 9C 74 8F 93 97 91 8B 
HI HI AE C7 88 55 00 D4 D0 33 09 5B 55 97 70 4F 93 8E 9C 7C 8F 93 97 91 8B 
HI HI AE C7 88 55 00 D4 D0 33 09 5B 59 9D 71 4F 94 8E B0 

AS30708-1C  05Nov2002
15:10-15:16(JST)
AOS   MEL  LOS  Elev
 54   90  126    5.0
Freq. 435.798-.790Hz
(JAS-2 No.110  B 1840-2120)

HI HI AE 07 88 55 00 D4 D0 33 09 5B 55 AF 67 52 8B 88 95 77 91 8F 93 92 8A 
HI HI AE 07 88 55 00 D4 D0 33 09 5B 59 AE 69 52 8B 88 95 77 91 8F 93 93 8A 
HI HI AE 07 88 55 00 D4 D0 33 09 5B 5E AC 68 53 8B 88 95 77 91 8F 93 93 8A  
HI HI AE 07 88 55 00 D4 D0 33 09 5B 64 AA 6E 4F 8B 89 95 77 91 8F 93 93 8A 
HI HI AE 07 88 55 00 D4 D0 33 09 5B 69 A6 6F 4F 8B 89 96 77 92 8F 93 93 8A 
HI HI AE 0Z 88 55 00 D4 D0 33 09 5B 6E A2 71 4F 8C 89 96 77 92 8F 93 93 8A 
HI HI AE 07 88 55 00 D4 D0 33 09 5B 75 9D 6F 4F 8C 89 96 7B 92 8F 93 93 8A 
HI HI AE 07 88 55 00 D4 D0 33 09 5B 7B 97 6E 50 8C 89 96 78 92 8F 93 93 8A 
HI HI AE 07 88 55 00 D4 D  

------------------------ FO-29の軌道要素 ------------------------------        
 
  ■ 軌道要素1:「jamsat−keps:1253」より         
          SB KEPS @ AMSAT  $ORB02311.N
          2Line Orbital Elements 02311.AMSAT

HR AMSAT ORBITAL ELEMENTS FOR AMATEUR SATELLITES IN NASA FORMAT
FROM WA5QGD FORT WORTH,TX November 7, 2002
SEND SUBSCRIBE/UNSUBSCRIBE TO majordomo@amsat.org ONLY
BID: ORB02311.N

 DECODE 2-LINE ELSETS WITH THE FOLLOWING KEY:
 1 AAAAAU 00  0  0 BBBBB.BBBBBBBB  .CCCCCCCC  00000-0  00000-0 0  DDDZ
 2 AAAAA EEE.EEEE FFF.FFFF GGGGGGG HHH.HHHH III.IIII JJ.JJJJJJJJKKKKKZ
 KEY: A-CATALOGNUM B-EPOCHTIME C-DECAY D-ELSETNUM E-INCLINATION F-RAAN
 G-ECCENTRICITY H-ARGPERIGEE I-MNANOM J-MNMOTION K-ORBITNUM Z-CHECKSUM

O-29
1 24278U 96046B   02311.44748604  .00000100  00000-0  13440-3 0  5376
2 24278  98.5279 111.7374 0351256 123.7461 239.7669 13.52862050307368

 ■ 軌道要素2:「jamsat−keps:1254」より 
       SB KEPS @ AMSAT  $ORB02311.O
       Orbital Elements  02311.OSCAR

HR AMSAT ORBITAL ELEMENTS FOR OSCAR SATELLITES
FROM WA5QGD FORT WORTH,TX November 7, 2002
SEND SUBSCRIBE/UNSUBSCRIBE TO majordomo@amsat.org ONLY
BID: ORB02311.O
TO ALL RADIO AMATEURS BT

Satellite: FO-29
Catalog number: 24278
Epoch time:      02311.44748604
Element set:     537
Inclination:       98.5279 deg
RA of node:       111.7374 deg
Eccentricity:    0.0351256
Arg of perigee:   123.7461 deg
Mean anomaly:     239.7669 deg
Mean motion:   13.52862050 rev/day
Decay rate:       1.00e-06 rev/day^2
Epoch rev:           30736
Checksum:              307

-------------------  FO-29(JAS-2)のテレメトリに関する情報  ---------------------- 
 
2)上記2002年11月8日(金)のテレメトリの17:37のパスの最終行を分析して
 おきます。

AS30749C  08Nov2002
17:37-17:50(JST)
AOS   MEL  LOS  Elev
  1   288  216  35.1
Freq. 435.804-.786Hz
(JAS-2 No.110 B 2810-3110END No.111 A 0-300)
 
HI HI AE 07 88 55 00 D4 71 37 09 4E 35 67 5B 5B 88 85 91 83 96 93 96 97 8D 

テレメトリ   内 容        換算算値 単 位
3C	磁気センサーZ軸=	25980.4	[nT]
3D	磁気センサX軸	=	50490.2	[nT]
4A	太陽電池発生電流=	892.2	[mA]
4B	B充放電電流	=   -216.4	[mA]
4C	B端子電圧	=	14.6	[V]
4D	B中間端子電圧	=	6.4	[V]
5A	バス電圧	=	14.2	[V]
5B	JTA送信電力	=	753.4	[mW]
5C 	構体温度1	=	23.6	[℃]
5D	構体温度2	=	24.8	[℃]
6A	構体温度3	=	23.6	[℃]
6B	構体温度4	=	23.2	[℃]
6C	Bセル温度	=	27.1	[℃]

 ========================== FO-29(ふじ3号)のテレメトリ分析、QSO情報等 =====================
   
 3)[jamsat-bb:12542]にてJAS-1b(FO-20)運用についてJN1GKZ新井さんのコメントがありましたので
   転載させて頂きました。

 WH6BIE KelyさんがFO-20にQRVされています。27日 13時過ぎのパスで良好
にQSOできました。このパスでは九州まで開けていましたが、QSOしたのは私
だけのようでした。
 毎週末、FO-20の日本とのパスにQRVするとのことでしたので、探してみて
下さい。

JN1GKZ 新井
   jn1gkz@jamsat.or.jp     http://www.ne.jp/asahi/m-arai/gkz/
-------------
JAMSAT BB Mailing List
http://www.jamsat.or.jp/infoserv/mlist.html
 =================================================================================================
 
 4)JARL のホームページに運用予定が記載されていましたのでご紹介します.
       ( http://www.jarl.or.jp/Japanese/3_Fuji/new/uy.htm )
       
        *** 運用予定について ***

        当分の間     アナログ系運用

  * なお,運用予定は都合により,変更することがありますの,であらかじめご了承願います。

 照会先 : lab@jarl.or.jp

 最新の情報はテレホンサービス(03−3942−1000)をお聞きください。  
  
  ふじ2号(JAS−1b)の運用 

 CWテレメトリの機能に障害が発生しています。詳細は「ふじ2号」の現況をご覧ください。
 運用はアナログ系の連続運用とします。 
     
-----------------------    FO−20(JAS-1b)道要素   -------------------------
  
  ■ 軌道要素1 :出典はFO-29「ふじ3号」に同じ.
  
FO-20
1 20480U 90013C   02311.87036361 -.00000025  00000-0  23405-4 0  4393
2 20480  99.0284 288.9977 0539741 236.4727 118.3701 12.83325082597341
 
  ■ 軌道要素2 :出典はFO−29「ふじ3号」に同じ.
               
Satellite: FO-20
Catalog number: 20480
Epoch time:      02311.87036361
Element set:     439
Inclination:       99.0284 deg
RA of node:       288.9977 deg
Eccentricity:    0.0539741
Arg of perigee:   236.4727 deg
Mean anomaly:     118.3701 deg
Mean motion:   12.83325082 rev/day
Decay rate:       -2.5e-07 rev/day^2
Epoch rev:           59734
Checksum:              317

-------------------------------------------------------------------------------- 
         ■ ふじ2号/FO−20/JAS-1b ■      
            
          「ふじ2号」 現況                                                                                  
             
   JAS-1b(ふじ2号)のCWテレメトリ信号に,1997年10月12日12時(JST)の
 日本上空通過時,3桁の数字が繰り返されるはずが3個の長音の繰り返しとなっているという
 異常が発見されました。この不具合は次の通過時からは回復していましたが13日15時20分の
 通過時に再び観測されました。現在はA0の送信が続いています。衛星のアナログ系中継モード
 動作は異常が無く,正常時のテレメトリ内容からは衛星の動作に異常は認められません。従って,
 直ちに衛星のミッションに影響することは無いと予想されますので,当面はアナログ系中継
 モードを継続します。衛星は既に打ち上げてから7年8ヶ月を経ておりますので,今後は監視を
 強化する予定です。アマチュア各位のレポートをお待ちします。
 -------------------------------------------------------------------------------- 
  1997年10月14日 00時35分 確認のテレメトリ音 151 KB (A0) 
  1997年10月14日 11時10分 確認のテレメトリ音 216 KB (異常キーイング) 

  以上 JARLのホ−ムページの http://www.jarl.or.jp/Japanese/3_Fuji/new/fuji.htm

===================== FO-20 ふじ2号 のテレメトリ観測結果 ====================

  3月8日(金)18:18(JST)の観測結果ではテレメトリは、以前観測した単一周波数の
正弦波がドップラー効果で周波数がずれていくのみの状態でした。
                                         
   =============   JAS-2 (ふじ3号)と現在までの情報   ===========
  
  A.電話によるふじ3号の運用情報
      社団法人日本アマチュア連盟によるサービス
           TEL .   03− 3942 − 1000
  B.アマチュア無線FAXサービス
      JARLによるふじ3号の軌道情報(オービットカレンダー)
         FAX No.  03− 3233 −0055
  C.WWWブラウザで情報を簡単に見れる人のためにJAS-1,JAS‐1b,
   JAS‐2(ふじ1号からふじ3号の衛星としての運用されるまでの名前)の
   概要、打ち上げまでの状況、運用中における状況を説明したホームページを
   紹介しておきます.

     社団法人日本アマチュア無線連盟(JARL)のホームページ

         http://www.jarl.or.jp/Japanese/3_Fuji/new/fuji.htm
     http://www.jarl.or.jp/Japanese/3_Fuji/history/history.htm
 
     宇宙開発事業団(NASDA)ホームページ 

      1)「ふじ1号」(JAS−1:FO−12)
         http://spaceboy.nasda.go.jp/lib/satellites/jas/j/jas_01_j.html
         http://spaceboy.nasda.go.jp/lib/satellites/jas/g/h_15_017.jpg
         http://spaceboy.nasda.go.jp/lib/satellites/jas/e/jas_01_e.html
         http://space.nasda.go.jp/db/kaihatu/eisei/eisei_j/jas_1_a_j.html#2
         http://spaceboy.nasda.go.jp/note/eisei/j/eis15h_j.html#eis15h_01_j
         http://www.nasda.go.jp/lib/nasda-news/1996/12/resai_j.html
         http://spaceboy.nasda.go.jp/lib/satellites/jas/g/h_15_007.jpg
         http://www.nasda.go.jp/press/2002/02/pb_020220_j.html

      2)「ふじ2号」(JAS−1b:FO−20)
         http://spaceboy.nasda.go.jp/lib/satellites/mos/g/h_21_018.jpg
         http://spaceboy.nasda.go.jp/lib/satellites/mos/g/h_21_019.jpg
         http://spaceboy.nasda.go.jp/note/eisei/j/eis15h_j.html#eis15h_01_j

      3)「ふじ3号」(JAS−2:FO−29)
         http://www.nasda.go.jp/lib/nasda-news/1996/09/h2_j.html
         http://www.nasda.go.jp/pr/services/presskit/h2-f4/p-h2_3_e.html
         http://space.nasda.go.jp/db/kaihatu/eisei/eisei_j/jas-2_j.html
         http://spaceboy.nasda.go.jp/note/eisei/j/eis15i_j.html#eis15i_03_j

  D.JAMSATによる軌道情報の活用
        JAMSATのホームページまたはjamsat−kepsの軌道要素より
      衛星の軌道情報を得る.
     JAMSATホームページ
               URL    http://www.jamsat.or.jp
       上記ホームページでは各地で行われるアマチュア通信衛星に関する
      ミューティングのお知らせや世界のアマチュア衛星に関する情報が
      満載されています.

 ========================================================================  
     JAMSATのメンバーのご協力によりJH6MME(高山 秀造)が
    執筆・編集を担当しております.ご指摘の意見、疑問やこのようにしたら
    というアイデアがありましたら小さなことでもかまいませんので気軽に下
    記アドレスまでご連絡ください.jamsat−newsからjas2
    infoへの転載をJH4PHW局坂井さんに担当して頂いております.  
                  E-mail : jh6mme@jamsat.or.jp : jh4phw@jamsat.or.jp
 ===============================   END  ===============================